Regional Weather Roundup
Issued by NWS

Home | Current Version | Previous Version | Graphics & Text | Print | Product List | Glossary On
Versions: 1 2 3 4 5 6 7 8 9 10 11 12 13 14 15 16 17 18 19 20 21 22 23 24 25 26 27 28 29 30 31 32 33 34 35 36 37 38 39 40 41 42 43 44 45 46 47 48 49 50
000
ASUS43 KFSD 010510
RWRSD

WEATHER ROUNDUP FOR SOUTH DAKOTA
NATIONAL WEATHER SERVICE SIOUX FALLS SD
1200 AM CDT WED JUN 01 2016

NOTE: "FAIR" INDICATES FEW OR NO CLOUDS BELOW 12,000 FEET WITH NO
SIGNIFICANT WEATHER AND/OR OBSTRUCTIONS TO VISIBILITY.


SDZ001>005-009-010-012>017-010600-
NORTHWEST AND NORTH CENTRAL SOUTH DAKOTA

CITY           SKY/WX    TMP DP  RH WIND       PRES   REMARKS
BUFFALO          N/A     51  46  83 NW26G36   29.96S
FAITH            N/A     49  43  80 W16       29.98S
MOBRIDGE       MOCLDY    54  45  71 NW17G25   29.86R
$$

SDZ012>016-024>037-041>051-057-063-072>074-010600-
SOUTHWEST AND SOUTH CENTRAL SOUTH DAKOTA

CITY           SKY/WX    TMP DP  RH WIND       PRES   REMARKS
RAPID CTY ARPT CLEAR     44  38  79 NW8       30.07S
PIERRE         MOCLDY    54  46  74 W10       29.95R
CUSTER         CLEAR     44  34  67 NW8G16    30.13S
ELLSWORTH AFB  CLEAR     50  42  72 NW14      30.07R
PHILIP         CLEAR     51  45  79 W9        30.02R
PINE RIDGE     CLEAR     46  39  76 W5        30.11R
WINNER         FAIR      55  46  71 W12       30.01R
$$

SDZ004>011-016>023-039-040-010600-
NORTHEAST SOUTH DAKOTA

CITY           SKY/WX    TMP DP  RH WIND       PRES   REMARKS
ABERDEEN       CLOUDY    58  47  66 W17G28    29.80R
WATERTOWN      CLOUDY    57  46  66 W24G33    29.84R
BROOKINGS      CLEAR     57  47  69 W14       29.88S
SISSETON         N/A     58  50  75 W18G24    29.74R
$$

SDZ017-020-022-023-036>040-048>070-010600-
SOUTHEAST SOUTH DAKOTA

CITY           SKY/WX    TMP DP  RH WIND       PRES   REMARKS
SIOUX FALLS    CLEAR     60  48  64 W13G21    29.93R
HURON          PTCLDY    56  45  66 W17G28    29.90R
CHAMBERLAIN    CLEAR     58  50  77 W10       29.98R
MITCHELL       CLEAR     59  49  69 SW9       29.95S
YANKTON        CLEAR     61  46  59 W10G17    29.97R
$$

ABBREVIATIONS USED IN REMARKS
   TC - TEMPERATURE IN CELSIUS
  WCI - WIND CHILL INDEX
   HX - HEAT INDEX
  VSB - VISIBILITY




USA.gov is the U.S. government's official web portal to all federal, state and local government web resources and services.